{"data":{"norad_id":69800,"epoch":"2026-09-20T03:52:36.936768Z","epoch_age_seconds":50904,"freshness":"FRESH","line1":"1 69800U 26153A   26263.16153862  .00000049  00000+0  23590-4 0  9996","line2":"2 69800  88.9977 351.4996 0005019   9.6439 350.4835 14.00290734 11006","mean_motion":14.00290734,"eccentricity":0.0005019,"inclination_deg":88.9977,"raan_deg":351.4996,"arg_perigee_deg":9.6439,"mean_anomaly_deg":350.4835,"bstar":2.359e-5,"rev_number":1100,"period_min":102.83578724302,"perigee_km":889.13927643,"apogee_km":896.43783150107,"semimajor_km":7270.9255539655,"source":"CELESTRAK","updated_at":"2026-09-20T09:00:25.118719Z"}}